Location: Azul
(36.7830°S, 59.8500°W)
Time: 08:14:01
(UTC-03:00)

NOAA 19 - Pass Details

Date: 29 October 2021
Orbit: 840 x 861 km, 99.2° (Epoch: 07 December)

Event Time Altitude Azimuth Distance (km) Brightness Sun altitude
Rises 20:37:59 0° 168° (SSE) 3,473 8.6 -13.4°
Reaches altitude 10° 20:40:23 10° 168° (SSE) 2,529 7.9 -13.8°
Maximum altitude 20:46:01 82° 255° (WSW) 882 5.4 -14.8°
Drops below altitude 10° 20:51:34 10° 341° (NNW) 2,493 7.5 -15.7°
Sets 20:53:55 0° 342° (NNW) 3,419 8.2 -16.1°
